• MPC Preparation (Info)

  • MPEC 2016-W54 : 2016 WV1

    The following Minor Planet Electronic Circular may be linked-to from your own Web pages, but must not otherwise be redistributed electronically.

    A form allowing access to any MPEC is at the bottom of this page.


    Read MPEC 2016-W53 Read MPEC 2016-W55


    M.P.E.C. 2016-W54                                Issued 2016 Nov. 22, 19:25 UT
    
         The Minor Planet Electronic Circulars contain information on unusual
             minor planets and routine data on comets.  They are published
        on behalf of Division F of the International Astronomical Union by the
              Minor Planet Center, Smithsonian Astrophysical Observatory,
                              Cambridge, MA 02138, U.S.A.
    
                 Prepared using the Tamkin Foundation Computer Network
    
                                  MPC@CFA.HARVARD.EDU
                URL https://www.minorplanetcenter.net/    ISSN 1523-6714
    
                                       2016 WV1
    
    Observations:
         K16W01V* C2016 11 19.43001 04 18 21.35 +31 32 25.7          20.0 VqEW054G96
         K16W01V  C2016 11 19.43981 04 18 15.40 +31 34 05.3          20.3 VqEW054G96
         K16W01V  C2016 11 19.44515 04 18 12.21 +31 34 58.5          20.7 VqEW054G96
         K16W01V  C2016 11 19.44967 04 18 09.48 +31 35 45.1          20.3 VqEW054G96
         K16W01V  C2016 11 19.48249 04 17 49.81 +31 41 15.3          19.9 VqEW054I52
         K16W01V  C2016 11 19.48325 04 17 49.39 +31 41 23.1          20.1 VqEW054I52
         K16W01V  C2016 11 19.48402 04 17 48.91 +31 41 30.9          20.0 VqEW054I52
         K16W01V  C2016 11 19.48478 04 17 48.48 +31 41 38.2          20.1 VqEW054I52
         K16W01V KC2016 11 20.31892904 09 53.79 +33 56 27.2          20.7 VuEW054H21
         K16W01V KC2016 11 20.32434404 09 50.64 +33 57 16.8          20.3 VuEW054H21
         K16W01V KC2016 11 20.33047004 09 47.06 +33 58 12.5          20.5 VuEW054H21
         K16W01V  C2016 11 20.41333 04 08 59.90 +34 10 56.1          20.4 VqEW054G96
         K16W01V  C2016 11 20.41740 04 08 57.57 +34 11 32.5          20.2 VqEW054G96
         K16W01V  C2016 11 20.41782 04 08 57.34 +34 11 36.1          20.6 VqEW054G96
         K16W01V  C2016 11 20.41840 04 08 57.02 +34 11 41.0          20.3 VqEW054G96
         K16W01V HC2016 11 21.31834 04 00 43.88 +36 20 24.4                UEW054H21
         K16W01V KC2016 11 21.32433 04 00 40.57 +36 21 12.3          20.5 GUEW054H21
         K16W01V HC2016 11 21.33030 04 00 37.24 +36 21 59.6                UEW054H21
         K16W01V KC2016 11 21.96831 03 55 00.63 +37 44 31.2          19.6 RoEW054K88
         K16W01V KC2016 11 21.97194 03 54 58.71 +37 44 57.1          19.7 RoEW054K88
         K16W01V  C2016 11 22.42448 03 51 03.03 +38 39 35.9          20.6 RoEW054926
         K16W01V  C2016 11 22.42774 03 51 01.33 +38 39 58.0          20.5 RoEW054926
         K16W01V  C2016 11 22.43101 03 50 59.60 +38 40 20.5          20.6 RoEW054926
    
    Observer details:
    926 Tenagra II Observatory.  Observers M. Schwartz, P. R. Holvorcem.  Measurer
        M. Schwartz.  0.81-m f/7 Ritchey-Chretien + CCD.
    G96 Mt. Lemmon Survey.  Observer G. J. Leonard.  Measurers E. J. Christensen,
        D. C. Fuls, A. R. Gibbs, A. D. Grauer, J. A. Johnson, R. A. Kowalski,
        S. M. Larson, G. J. Leonard, R. G. Matheny, R. L. Seaman, F. C. Shelly.
        1.5-m reflector + 10K CCD.
    H21 Astronomical Research Observatory, Westfield.  Observer R. Holmes.
        Measurers S. Foglia, L. Buzzi, T. Linder, R. Holmes, T. Vorobjov.  0.61-m
        f/4.0 astrograph + CCD, 0.76-m f/3.0 astrograph + CCD.
    I52 Steward Observatory, Mt. Lemmon Station.  Observer R. A. Kowalski.
        Measurers E. J. Christensen, D. C. Fuls, A. R. Gibbs, A. D. Grauer,
        J. A. Johnson, R. A. Kowalski, S. M. Larson, G. J. Leonard, R. G. Matheny,
        R. L. Seaman, F. C. Shelly.  1.0-m reflector + CCD.
    K88 GINOP-KHK, Piszkesteto.  Observers B. Cseh, K. Sarneczky.  Measurer
        K. Sarneczky.  0.60-m Schmidt + CCD.
    
    Orbital elements:
    2016 WV1                                                 Earth MOID = 0.0902 AU
    Epoch 2017 Feb. 16.0 TT = JDT 2457800.5                 MPC
    M  83.69976              (2000.0)            P               Q
    n   0.54905779     Peri.  284.64253     +0.84022434     +0.35130732
    a   1.4770346      Node    56.47534     -0.04182566     +0.80146028
    e   0.4185446      Incl.   29.70054     -0.54062341     +0.48398821
    P   1.80           H   23.6           G   0.15           U   6
    Residuals in seconds of arc
    161119 G96  0.4+  0.2+    161120 H21  0.0   0.5-    161121 H21  0.2+  0.3-
    161119 G96  0.1-  0.4+    161120 H21  0.1+  0.3-    161121 H21  0.3+  0.8-
    161119 G96  0.2+  0.5-    161120 H21  0.1+  0.4-    161121 K88  0.2-  1.2+
    161119 G96  0.1+  0.4+    161120 G96  0.8-  0.5+    161121 K88  0.4+  0.2+
    161119 I52  0.3-  0.2-    161120 G96  0.4-  0.4+    161122 926  0.1-  0.1+
    161119 I52  0.1+  0.0     161120 G96  0.2-  0.2+    161122 926  0.1+  0.3-
    161119 I52  0.2-  0.1+    161120 G96  0.0   0.1-    161122 926  0.0   0.2-
    161119 I52  0.1+  0.3-    161121 H21  0.2-  0.1-
    
    Ephemeris:
    2016 WV1                 a,e,i = 1.48, 0.42, 30                  q = 0.8588
    Date    TT    R. A. (2000) Decl.     Delta      r     Elong.  Phase     V
    2016 10 23    08 34 12.1 -52 00 50   0.2241  0.9591    74.4    92.6    23.6
    ...
    2016 11 07    06 31 48.9 -22 18 52   0.1156  1.0421   113.3    60.9    21.2
    ...
    2016 11 15    05 04 23.3 +15 21 02   0.1112  1.0911   155.3    22.3    20.1
    ...
    2016 11 21    04 03 38.5 +35 36 32   0.1463  1.1291   163.9    14.1    20.5
    2016 11 22    03 54 45.1 +37 48 30   0.1542  1.1355   162.3    15.3    20.7
    2016 11 23    03 46 17.1 +39 44 21   0.1625  1.1420   160.5    16.8    20.8
    ...
    2016 11 29    03 04 37.1 +47 13 30   0.2186  1.1808   150.0    24.7    21.8
    ...
    2016 12 07    02 30 50.4 +51 21 23   0.3033  1.2330   140.0    30.9    22.8
    ...
    2016 12 22    02 10 23.5 +53 30 30   0.4773  1.3300   127.6    35.8    24.1
    
    A. U. Tomatic                (C) Copyright 2016 MPC           M.P.E.C. 2016-W54
    

    Read MPEC 2016-W53 Read MPEC 2016-W55


    MPEC number:

    Enter an MPEC number in one of the following forms:

    • 1997-B01 (the full form)
    • J97B01 (the packed version of the full form)
    • B01 (the abbreviated form)